FW2710 Weather Reports


Display with metric or nautical units.
time (UTC)temp
F
wind
direction
speed
MPH
gust
MPH
rain 1hr
in
rain 24hr
in
rain mn
in
humidity
%
barometer
mb
20260904152529 87 289 0.0 7.0 0.00 0.00 0.00 69 1016.0
20260904152027 87 0 1.0 7.0 0.00 0.00 0.00 70 1016.0
20260904151549 87 0 0.0 7.0 0.00 0.00 0.00 70 1016.0
20260904151027 87 289 2.0 8.0 0.00 0.00 0.00 69 1015.9
20260904150527 86 0 1.0 8.0 0.00 0.00 0.00 70 1015.8
20260904150045 86 0 0.0 6.0 0.00 0.00 0.00 71 1015.9
20260904145525 86 289 1.0 6.0 0.00 0.00 0.00 71 1015.9
20260904145025 85 289 0.0 6.0 0.00 0.00 0.00 71 1015.9
20260904144605 85 0 0.0 4.0 0.00 0.00 0.00 73 1015.8
20260904144028 84 0 0.0 3.0 0.00 0.00 0.00 73 1015.7
20260904143526 84 289 0.0 3.0 0.00 0.00 0.00 73 1015.8
20260904143056 84 0 0.0 4.0 0.00 0.00 0.00 74 1015.8
20260904142526 83 0 0.0 4.0 0.00 0.00 0.00 74 1015.8
20260904142026 83 0 0.0 8.0 0.00 0.00 0.00 75 1015.7
20260904141546 83 0 0.0 8.0 0.00 0.00 0.00 75 1015.7
20260904141025 82 0 0.0 4.0 0.00 0.00 0.00 75 1015.7
20260904140525 82 0 0.0 4.0 0.00 0.00 0.00 74 1015.7
20260904140049 82 0 0.0 7.0 0.00 0.00 0.00 75 1015.7
20260904135525 81 0 0.0 7.0 0.00 0.00 0.00 75 1015.7
20260904135023 81 0 1.0 7.0 0.00 0.00 0.00 76 1015.7
20260904134549 81 0 0.0 4.0 0.00 0.00 0.00 78 1015.7
20260904134029 80 0 0.0 0.0 0.00 0.00 0.00 78 1015.8
20260904133529 80 0 0.0 0.0 0.00 0.00 0.00 80 1015.8
20260904133057 80 0 0.0 0.0 0.00 0.00 0.00 80 1015.7
20260904132526 79 0 0.0 0.0 0.00 0.00 0.00 80 1015.7
20260904132028 79 0 0.0 3.0 0.00 0.00 0.00 80 1015.6
20260904131548 79 0 0.0 4.0 0.00 0.00 0.00 80 1015.6
20260904131023 79 289 0.0 4.0 0.00 0.00 0.00 80 1015.5
20260904130525 78 0 0.0 0.0 0.00 0.00 0.00 81 1015.5
20260904130052 78 0 0.0 6.0 0.00 0.00 0.00 81 1015.4
20260904125524 78 0 0.0 6.0 0.00 0.00 0.00 81 1015.2
20260904125024 78 0 0.0 1.0 0.00 0.00 0.00 81 1015.2
20260904124549 78 0 0.0 2.0 0.00 0.00 0.00 81 1015.2
20260904124026 78 0 0.0 4.0 0.00 0.00 0.00 81 1015.2
20260904123528 78 0 0.0 4.0 0.00 0.00 0.00 81 1015.0
20260904123046 77 0 0.0 4.0 0.00 0.00 0.00 81 1015.0
20260904122530 77 0 0.0 0.0 0.00 0.00 0.00 81 1014.9
20260904122026 77 0 0.0 0.0 0.00 0.00 0.00 81 1014.8
20260904121545 77 0 0.0 0.0 0.00 0.00 0.00 81 1014.8
20260904121027 77 0 0.0 0.0 0.00 0.00 0.00 81 1014.8
20260904120524 77 0 0.0 0.0 0.00 0.00 0.00 81 1014.7
20260904120049 77 0 0.0 0.0 0.00 0.00 0.00 81 1014.7
20260904115523 77 0 0.0 0.0 0.00 0.00 0.00 81 1014.7
20260904115026 77 0 0.0 0.0 0.00 0.00 0.00 81 1014.6
20260904114550 77 0 0.0 0.0 0.00 0.00 0.00 81 1014.5
20260904114024 77 0 0.0 0.0 0.00 0.00 0.00 81 1014.5
20260904113526 77 0 0.0 0.0 0.00 0.00 0.00 81 1014.7
20260904113049 77 0 0.0 0.0 0.00 0.00 0.00 81 1014.6
20260904112525 77 0 0.0 0.0 0.00 0.00 0.00 81 1014.5
20260904112025 77 0 0.0 0.0 0.00 0.00 0.00 82 1014.7
20260904111546 77 0 0.0 0.0 0.00 0.00 0.00 82 1014.6
20260904111025 77 0 0.0 0.0 0.00 0.00 0.00 82 1014.6
20260904110526 77 0 0.0 0.0 0.00 0.00 0.00 82 1014.8
20260904110050 77 0 0.0 0.0 0.00 0.00 0.00 82 1014.6
20260904105526 76 0 0.0 0.0 0.00 0.00 0.00 83 1014.6
20260904105024 76 0 0.0 0.0 0.00 0.00 0.00 83 1014.7
20260904104546 76 0 0.0 0.0 0.00 0.00 0.00 83 1014.6
20260904104026 76 0 0.0 0.0 0.00 0.00 0.00 83 1014.7
20260904103525 76 0 0.0 0.0 0.00 0.00 0.00 83 1014.6
20260904103045 76 0 0.0 0.0 0.00 0.00 0.00 83 1014.6
20260904102525 76 0 0.0 0.0 0.00 0.00 0.00 83 1014.7
20260904102023 76 0 0.0 0.0 0.00 0.00 0.00 83 1014.7
20260904101550 76 0 0.0 0.0 0.00 0.00 0.00 82 1014.7
20260904101024 76 0 0.0 0.0 0.00 0.00 0.00 82 1014.7
20260904100524 77 0 0.0 0.0 0.00 0.00 0.00 82 1014.7
20260904100045 77 0 0.0 0.0 0.00 0.00 0.00 82 1014.9
20260904095526 77 0 0.0 0.0 0.00 0.00 0.00 81 1014.8
20260904095022 77 0 0.0 0.0 0.00 0.00 0.00 81 1014.8
20260904094547 77 0 0.0 0.0 0.00 0.00 0.00 81 1014.7
20260904094025 77 0 0.0 0.0 0.00 0.00 0.00 80 1014.9
20260904093525 78 0 0.0 0.0 0.00 0.00 0.00 80 1014.8
20260904093048 78 0 0.0 0.0 0.00 0.00 0.00 80 1014.8
20260904092525 78 0 0.0 0.0 0.00 0.00 0.00 79 1014.6
20260904092024 78 0 0.0 0.0 0.00 0.00 0.00 79 1014.6
20260904091556 78 0 0.0 0.0 0.00 0.00 0.00 79 1014.7
20260904091023 78 0 0.0 0.0 0.00 0.00 0.00 79 1014.5
20260904090524 78 0 0.0 0.0 0.00 0.00 0.00 78 1014.5
20260904090048 79 0 0.0 0.0 0.00 0.00 0.00 78 1014.4
20260904085523 79 0 0.0 0.0 0.00 0.00 0.00 78 1014.4
20260904085029 79 0 0.0 0.0 0.00 0.00 0.00 78 1014.3
20260904084547 79 0 0.0 0.0 0.00 0.00 0.00 78 1014.3
20260904084026 79 0 0.0 3.0 0.00 0.00 0.00 78 1014.2
20260904083525 79 0 0.0 3.0 0.00 0.00 0.00 78 1014.3
20260904083049 78 0 0.0 0.0 0.00 0.00 0.00 78 1014.3
20260904082525 78 0 0.0 0.0 0.00 0.00 0.00 79 1014.3
20260904082024 78 0 0.0 0.0 0.00 0.00 0.00 79 1014.2
20260904081546 78 0 0.0 0.0 0.00 0.00 0.00 79 1014.2
20260904081025 78 0 0.0 0.0 0.00 0.00 0.00 79 1014.2
20260904080525 78 0 0.0 0.0 0.00 0.00 0.00 79 1014.3
20260904080047 78 0 0.0 0.0 0.00 0.00 0.00 80 1014.2
20260904075526 78 0 0.0 0.0 0.00 0.00 0.00 80 1014.3
20260904075029 77 0 0.0 0.0 0.00 0.00 0.00 81 1014.3
20260904074601 77 0 0.0 0.0 0.00 0.00 0.00 81 1014.2
20260904074028 77 0 0.0 0.0 0.00 0.00 0.00 81 1014.3
20260904073523 77 0 0.0 0.0 0.00 0.00 0.00 82 1014.3
20260904073050 77 0 0.0 0.0 0.00 0.00 0.00 82 1014.3
20260904072529 76 0 0.0 0.0 0.00 0.00 0.00 81 1014.5
20260904072023 76 0 0.0 0.0 0.00 0.00 0.00 81 1014.6
20260904071610 77 0 0.0 0.0 0.00 0.00 0.00 81 1014.6
20260904071027 77 0 0.0 0.0 0.00 0.00 0.00 81 1014.7
20260904070526 77 0 0.0 0.0 0.00 0.00 0.00 80 1014.7
20260904070051 77 0 0.0 0.0 0.00 0.00 0.00 80 1014.9
20260904065525 77 0 0.0 0.0 0.00 0.00 0.00 80 1015.0
20260904065025 77 0 0.0 0.0 0.00 0.00 0.00 80 1014.9
20260904064601 77 0 0.0 0.0 0.00 0.00 0.00 80 1015.0
20260904064025 77 0 0.0 0.0 0.00 0.00 0.00 80 1014.8
20260904063523 77 0 0.0 0.0 0.00 0.00 0.00 79 1014.7
20260904063053 77 0 0.0 0.0 0.00 0.00 0.00 79 1014.7
20260904062523 77 0 0.0 0.0 0.00 0.00 0.00 79 1014.8
20260904062023 77 0 0.0 0.0 0.00 0.00 0.00 79 1014.8
20260904061545 77 0 0.0 0.0 0.00 0.00 0.00 79 1014.8
20260904061024 77 0 0.0 0.0 0.00 0.00 0.00 79 1014.9
20260904060525 78 0 0.0 0.0 0.00 0.00 0.00 78 1014.9
20260904060047 78 0 0.0 0.0 0.00 0.00 0.00 78 1014.9
20260904055526 78 0 0.0 0.0 0.00 0.00 0.00 78 1015.0
20260904055025 78 0 0.0 0.0 0.00 0.00 0.00 78 1015.0
20260904054546 78 0 0.0 0.0 0.00 0.00 0.00 78 1015.0
20260904054025 78 0 0.0 0.0 0.00 0.00 0.00 78 1014.9
20260904053525 78 0 0.0 0.0 0.00 0.00 0.00 77 1014.8
20260904053059 78 0 0.0 0.0 0.00 0.00 0.00 77 1014.9
20260904052525 78 0 0.0 0.0 0.00 0.00 0.00 77 1014.9
20260904052025 78 0 0.0 0.0 0.00 0.00 0.00 77 1014.9
20260904051548 78 0 0.0 0.0 0.00 0.00 0.00 77 1014.9
20260904051025 79 0 0.0 0.0 0.00 0.00 0.00 77 1014.9
20260904050527 79 0 0.0 0.0 0.00 0.00 0.00 77 1014.9
20260904050050 79 0 0.0 0.0 0.00 0.00 0.00 77 1014.9
20260904045526 78 0 0.0 0.0 0.00 0.00 0.00 78 1014.9
20260904045025 78 0 0.0 0.0 0.00 0.00 0.00 77 1014.9
20260904044558 78 0 0.0 0.0 0.00 0.00 0.00 78 1014.9
20260904044023 78 0 0.0 0.0 0.00 0.00 0.00 78 1015.0
20260904043523 78 0 0.0 0.0 0.00 0.00 0.00 79 1015.0
20260904043049 78 0 0.0 0.0 0.00 0.00 0.00 80 1015.0
20260904042523 79 0 0.0 0.0 0.00 0.00 0.00 80 1015.0
20260904042029 79 0 0.0 0.0 0.00 0.00 0.00 79 1014.9
20260904041547 79 0 0.0 0.0 0.00 0.00 0.00 79 1015.0
20260904041024 79 0 0.0 0.0 0.00 0.00 0.00 79 1014.9
20260904040528 79 0 0.0 0.0 0.00 0.00 0.00 78 1014.9
20260904040049 79 0 0.0 0.0 0.00 0.00 0.00 78 1014.9
20260904035526 79 0 0.0 0.0 0.00 0.00 0.00 79 1014.9
20260904035027 79 0 0.0 0.0 0.00 0.00 0.00 80 1014.7
20260904034547 80 0 0.0 0.0 0.00 0.00 0.00 80 1014.9
20260904034025 80 0 0.0 0.0 0.00 0.00 0.00 81 1014.9
20260904033525 80 0 0.0 0.0 0.00 0.00 0.00 80 1014.9
20260904033051 80 0 0.0 0.0 0.00 0.00 0.00 80 1014.8
20260904032523 80 0 0.0 0.0 0.00 0.00 0.00 80 1014.8
20260904032025 80 0 0.0 0.0 0.00 0.00 0.00 81 1014.9
20260904031601 80 0 0.0 0.0 0.00 0.00 0.00 81 1014.8
20260904031031 80 0 0.0 0.0 0.00 0.00 0.00 82 1014.6
20260904030526 80 0 0.0 0.0 0.00 0.00 0.00 82 1014.6
20260904030046 80 0 0.0 0.0 0.00 0.00 0.00 82 1014.6
20260904025526 80 0 0.0 0.0 0.00 0.00 0.00 82 1014.6
20260904025025 80 0 0.0 0.0 0.00 0.00 0.00 82 1014.6
20260904024546 80 0 0.0 0.0 0.00 0.00 0.00 82 1014.5
20260904024026 81 0 0.0 0.0 0.00 0.00 0.00 82 1014.5
20260904023525 81 0 0.0 0.0 0.00 0.00 0.00 82 1014.4
20260904023041 81 0 0.0 0.0 0.00 0.00 0.00 82 1014.4
20260904022523 81 0 0.0 0.0 0.00 0.00 0.00 82 1014.3
20260904022022 81 0 0.0 0.0 0.00 0.00 0.00 82 1014.4
20260904021552 81 0 0.0 0.0 0.00 0.00 0.00 82 1014.1
20260904021027 81 0 0.0 0.0 0.00 0.00 0.00 82 1014.2
20260904020525 81 0 0.0 0.0 0.00 0.00 0.00 81 1014.2
20260904020047 81 0 0.0 0.0 0.00 0.00 0.00 81 1014.2
20260904015525 81 0 0.0 0.0 0.00 0.00 0.00 80 1014.1
20260904015028 82 0 0.0 0.0 0.00 0.00 0.00 80 1014.0
20260904014549 82 0 0.0 0.0 0.00 0.00 0.00 80 1013.9
20260904014027 82 0 0.0 0.0 0.00 0.00 0.00 79 1013.9
20260904013528 83 0 0.0 0.0 0.00 0.00 0.00 78 1013.9
20260904013043 83 0 0.0 0.0 0.00 0.00 0.00 78 1013.9
20260904012526 83 0 0.0 0.0 0.00 0.00 0.00 77 1013.9
20260904012025 84 0 0.0 0.0 0.00 0.00 0.00 76 1013.8
20260904011547 84 0 0.0 0.0 0.00 0.00 0.00 75 1013.8
20260904011025 85 0 0.0 0.0 0.00 0.00 0.00 73 1013.8
20260904010529 85 0 0.0 0.0 0.00 0.00 0.00 71 1013.7
20260904010050 85 0 0.0 0.0 0.00 0.00 0.00 71 1013.8
20260904005525 85 0 0.0 0.0 0.00 0.00 0.00 71 1013.8
20260904005025 85 0 0.0 0.0 0.00 0.00 0.00 72 1013.7
20260904004550 86 0 0.0 0.0 0.00 0.00 0.00 71 1013.5
20260904004024 86 0 0.0 0.0 0.00 0.00 0.00 70 1013.5
20260904003523 86 0 0.0 0.0 0.00 0.00 0.00 70 1013.4
20260904003048 86 0 0.0 0.0 0.00 0.00 0.00 69 1013.4
20260904002529 87 0 0.0 0.0 0.00 0.00 0.00 69 1013.5
20260904002025 87 0 0.0 0.0 0.00 0.00 0.00 70 1013.4
20260904001545 88 0 0.0 0.0 0.00 0.00 0.00 72 1013.4
20260904001024 88 0 0.0 0.0 0.00 0.00 0.00 72 1013.5
20260904000526 88 0 0.0 0.0 0.00 0.00 0.00 71 1013.5
20260903235529 89 0 0.0 0.0 0.00 0.00 0.00 71 1013.6
20260903235027 89 0 0.0 0.0 0.00 0.00 0.00 71 1013.6
20260903234549 89 0 0.0 0.0 0.00 0.00 0.00 70 1013.7
20260903234027 89 0 0.0 0.0 0.00 0.00 0.00 69 1013.7
20260903233527 89 0 0.0 0.0 0.00 0.00 0.00 70 1014.0
20260903233048 90 0 0.0 0.0 0.00 0.00 0.00 69 1013.9
20260903232527 90 0 0.0 0.0 0.00 0.00 0.00 68 1013.9
20260903232028 90 0 0.0 0.0 0.00 0.00 0.00 69 1013.9
20260903231551 90 0 0.0 0.0 0.00 0.00 0.00 68 1014.0
20260903231027 90 0 0.0 0.0 0.00 0.00 0.00 67 1013.8
20260903230527 90 0 0.0 0.0 0.00 0.00 0.00 65 1013.9
20260903225526 91 0 0.0 0.0 0.00 0.00 0.00 64 1013.9
20260903225027 92 0 0.0 0.0 0.00 0.00 0.00 63 1013.9
20260903224550 92 0 0.0 0.0 0.00 0.00 0.00 62 1013.9
20260903224035 93 0 0.0 0.0 0.00 0.00 0.00 62 1013.9
20260903223526 93 0 0.0 4.0 0.00 0.00 0.00 59 1013.9
20260903223046 93 0 0.0 4.0 0.00 0.00 0.00 58 1013.9
20260903222527 93 0 0.0 4.0 0.00 0.00 0.00 59 1013.9
20260903222027 93 0 0.0 0.0 0.00 0.00 0.00 60 1013.9
20260903221558 93 0 0.0 0.0 0.00 0.00 0.00 61 1013.9
20260903221032 93 0 0.0 4.0 0.00 0.00 0.00 60 1013.8
20260903220526 94 0 0.0 4.0 0.00 0.00 0.00 59 1013.8
20260903220050 94 0 0.0 4.0 0.00 0.00 0.00 58 1013.9
20260903215527 94 0 0.0 4.0 0.00 0.00 0.00 58 1013.9
20260903215027 94 0 0.0 2.0 0.00 0.00 0.00 58 1013.9
20260903214545 94 0 0.0 3.0 0.00 0.00 0.00 58 1013.9
20260903214028 94 0 0.0 7.0 0.00 0.00 0.00 57 1013.9
20260903213527 94 0 1.0 7.0 0.00 0.00 0.00 55 1013.9
20260903213045 94 0 0.0 7.0 0.00 0.00 0.00 56 1013.8
20260903212526 94 0 0.0 6.0 0.00 0.00 0.00 58 1013.9
20260903212028 94 0 0.0 6.0 0.00 0.00 0.00 56 1013.9
20260903211553 94 0 0.0 6.0 0.00 0.00 0.00 58 1013.9
20260903211028 94 0 1.0 6.0 0.00 0.00 0.00 57 1014.0
20260903210527 94 289 0.0 6.0 0.00 0.00 0.00 56 1014.1
20260903210048 94 289 1.0 6.0 0.00 0.00 0.00 56 1014.0
20260903205525 94 0 0.0 6.0 0.00 0.00 0.00 58 1014.0
20260903205029 94 0 0.0 6.0 0.00 0.00 0.00 57 1014.1
20260903204552 94 0 0.0 4.0 0.00 0.00 0.00 56 1014.0
20260903204030 94 0 0.0 4.0 0.00 0.00 0.00 56 1014.1
20260903203528 95 0 0.0 4.0 0.00 0.00 0.00 57 1014.2
20260903203052 95 289 0.0 4.0 0.00 0.00 0.00 56 1014.2
20260903202526 95 0 0.0 3.0 0.00 0.00 0.00 57 1014.1
20260903202032 95 0 0.0 4.0 0.00 0.00 0.00 57 1014.2
20260903201543 95 0 1.0 4.0 0.00 0.00 0.00 59 1014.2
20260903201026 95 0 0.0 0.0 0.00 0.00 0.00 59 1014.2
20260903200527 95 0 0.0 0.0 0.00 0.00 0.00 59 1014.2
20260903200051 95 0 0.0 6.0 0.00 0.00 0.00 57 1014.2
20260903195528 95 0 2.0 6.0 0.00 0.00 0.00 58 1014.2
20260903195026 95 0 0.0 0.0 0.00 0.00 0.00 58 1014.3
20260903194550 95 0 0.0 0.0 0.00 0.00 0.00 59 1014.2
20260903194027 95 0 0.0 0.0 0.00 0.00 0.00 59 1014.3
20260903193527 95 0 0.0 0.0 0.00 0.00 0.00 61 1014.4
20260903193047 94 0 0.0 6.0 0.00 0.00 0.00 57 1014.5
20260903192526 94 0 0.0 6.0 0.00 0.00 0.00 56 1014.5
20260903192026 94 0 0.0 6.0 0.00 0.00 0.00 56 1014.5
20260903191545 94 0 0.0 6.0 0.00 0.00 0.00 54 1014.6
20260903191028 94 0 0.0 4.0 0.00 0.00 0.00 58 1014.6
20260903190525 94 0 0.0 6.0 0.00 0.00 0.00 58 1014.7
20260903190048 94 0 1.0 6.0 0.00 0.00 0.00 57 1014.7
20260903185526 94 0 0.0 6.0 0.00 0.00 0.00 57 1014.7
20260903185029 94 0 0.0 4.0 0.00 0.00 0.00 58 1014.7
20260903184546 94 0 0.0 7.0 0.00 0.00 0.00 59 1014.9
20260903184028 94 0 0.0 7.0 0.00 0.00 0.00 60 1014.9
20260903183526 93 291 0.0 7.0 0.00 0.00 0.00 59 1014.9
20260903183052 93 0 0.0 3.0 0.00 0.00 0.00 60 1015.0
20260903182526 93 0 0.0 7.0 0.00 0.00 0.00 61 1014.9
20260903182026 93 0 0.0 7.0 0.00 0.00 0.00 60 1015.0
20260903181547 93 0 1.0 7.0 0.00 0.00 0.00 60 1015.0
20260903181027 93 0 1.0 7.0 0.00 0.00 0.00 60 1015.1
20260903180527 92 0 0.0 7.0 0.00 0.00 0.00 59 1015.2
20260903180110 92 0 0.0 8.0 0.00 0.00 0.00 62 1015.2
20260903175527 92 0 0.0 8.0 0.00 0.00 0.00 60 1015.3
20260903175116 92 0 0.0 7.0 0.00 0.00 0.00 62 1015.3
20260903174546 92 291 0.0 7.0 0.00 0.00 0.00 63 1015.4
20260903174026 91 291 0.0 7.0 0.00 0.00 0.00 64 1015.4
20260903173528 91 0 0.0 6.0 0.00 0.00 0.00 63 1015.4
20260903173052 91 0 0.0 6.0 0.00 0.00 0.00 64 1015.4
20260903172529 91 0 0.0 6.0 0.00 0.00 0.00 67 1015.3
20260903172027 90 0 0.0 6.0 0.00 0.00 0.00 66 1015.4
20260903171553 90 0 2.0 6.0 0.00 0.00 0.00 65 1015.4
20260903171031 90 0 0.0 6.0 0.00 0.00 0.00 66 1015.4
20260903170528 90 0 0.0 4.0 0.00 0.00 0.00 66 1015.4
20260903170057 90 0 0.0 6.0 0.00 0.00 0.00 65 1015.5
20260903165526 90 0 1.0 6.0 0.00 0.00 0.00 66 1015.6
20260903165026 90 0 0.0 4.0 0.00 0.00 0.00 67 1015.6
20260903164600 89 0 0.0 7.0 0.00 0.00 0.00 66 1015.6
20260903164032 89 291 1.0 7.0 0.00 0.00 0.00 67 1015.7
20260903163527 89 0 0.0 9.0 0.00 0.00 0.00 68 1015.7
20260903163048 89 0 0.0 9.0 0.00 0.00 0.00 67 1015.8
20260903162527 89 291 2.0 9.0 0.00 0.00 0.00 66 1015.8
20260903162027 89 291 0.0 1.0 0.00 0.00 0.00 68 1015.8
20260903161547 88 0 0.0 4.0 0.00 0.00 0.00 69 1015.8
20260903161027 88 0 0.0 4.0 0.00 0.00 0.00 69 1015.8
20260903160528 88 0 0.0 6.0 0.00 0.00 0.00 70 1015.8
20260903160046 87 0 0.0 6.0 0.00 0.00 0.00 70 1015.9
20260903155532 87 0 1.0 6.0 0.00 0.00 0.00 70 1015.9
20260903155030 87 0 0.0 7.0 0.00 0.00 0.00 70 1015.8
20260903154554 87 0 1.0 7.0 0.00 0.00 0.00 70 1015.8
20260903154024 86 0 0.0 7.0 0.00 0.00 0.00 69 1015.8
20260903153528 86 0 0.0 7.0 0.00 0.00 0.00 70 1015.8
20260903153050 86 0 0.0 7.0 0.00 0.00 0.00 69 1015.8